When you browse on this site, cookies collect data to enhance your experience and personalize the content and advertising you see.
Visit our Privacy Policy to learn more. By continuing to use the site, you agree to this use of cookies and data.
  • In United Kingdom
  • List of Countries
  • For 7 days
  • Water Temperature
  • Weather Map
  • Weather Widgets
  • user-avatar
    Login

    Hourly Weather Bekes

    Today, 10 December, Tuesday

    Time Temperature Precipitation Wind Pressure Humidity
    00:00 +6°C° 0 mm 2 mps 749 mmHg 82%
    01:00 +7°C° 0 mm 1 mps 749 mmHg 82%
    02:00 +7°C° 0 mm 1 mps 749 mmHg 82%
    03:00 +7°C° 0 mm 1 mps 749 mmHg 82%
    04:00 +7°C° 0 mm 1 mps 749 mmHg 82%
    05:00 +7°C° 0.1 mm 1 mps 750 mmHg 84%
    06:00 +6°C° 0.1 mm 2 mps 750 mmHg 86%
    07:00 +6°C° 0.1 mm 2 mps 751 mmHg 88%
    08:00 +5°C° 0.2 mm 3 mps 751 mmHg 88%
    09:00 +5°C° 0.2 mm 3 mps 752 mmHg 89%
    10:00 +5°C° 0.2 mm 3 mps 752 mmHg 90%
    11:00 +5°C° 0.2 mm 3 mps 752 mmHg 90%
    12:00 +5°C° 0.2 mm 3 mps 753 mmHg 90%
    13:00 +5°C° 0.2 mm 4 mps 753 mmHg 89%
    14:00 +5°C° 0.3 mm 5 mps 753 mmHg 89%
    15:00 +4°C° 0.3 mm 6 mps 753 mmHg 88%
    16:00 +4°C° 0.3 mm 7 mps 754 mmHg 87%
    17:00 +4°C° 0.1 mm 7 mps 754 mmHg 83%
    18:00 +3°C° 0.1 mm 7 mps 755 mmHg 79%
    19:00 +3°C° 0.1 mm 7 mps 756 mmHg 75%
    20:00 +3°C° 0 mm 7 mps 756 mmHg 72%
    21:00 +2°C° 0 mm 7 mps 756 mmHg 68%
    22:00 +2°C° 0 mm 7 mps 756 mmHg 65%
    23:00 0°C° 0 mm 7 mps 756 mmHg 65%

    Tomorrow, 11 December, Wednesday

    Time Temperature Precipitation Wind Pressure Humidity
    00:00 +1°C° 0 mm 6 mps 756 mmHg 65%
    01:00 -1°C° 0 mm 6 mps 756 mmHg 65%
    02:00 -1°C° 0 mm 6 mps 756 mmHg 66%
    03:00 -1°C° 0 mm 6 mps 756 mmHg 68%
    04:00 -1°C° 0 mm 6 mps 755 mmHg 70%
    05:00 -1°C° 0 mm 5 mps 755 mmHg 72%
    06:00 -1°C° 0 mm 5 mps 756 mmHg 74%
    07:00 -2°C° 0 mm 4 mps 756 mmHg 76%
    08:00 -1°C° 0 mm 4 mps 756 mmHg 74%
    09:00 -1°C° 0 mm 4 mps 755 mmHg 71%
    10:00 0°C° 0 mm 4 mps 755 mmHg 69%
    11:00 +1°C° 0 mm 3 mps 755 mmHg 67%
    12:00 +2°C° 0 mm 3 mps 755 mmHg 66%
    13:00 +3°C° 0 mm 2 mps 754 mmHg 65%
    14:00 +3°C° 0 mm 2 mps 754 mmHg 67%
    15:00 +4°C° 0 mm 1 mps 753 mmHg 70%
    16:00 +3°C° 0 mm 1 mps 753 mmHg 72%
    17:00 +3°C° 0 mm 1 mps 753 mmHg 76%
    18:00 +2°C° 0 mm 1 mps 753 mmHg 79%
    19:00 +2°C° 0 mm 1 mps 753 mmHg 82%
    20:00 +2°C° 0 mm 1 mps 753 mmHg 84%
    21:00 +2°C° 0 mm 1 mps 752 mmHg 86%
    22:00 +1°C° 0 mm 1 mps 752 mmHg 88%
    23:00 +2°C° 0 mm 1 mps 752 mmHg 89%

    Day after tomorrow, 12 December, Thursday

    Time Temperature Precipitation Wind Pressure Humidity
    00:00 +2°C° 0 mm 1 mps 752 mmHg 89%
    01:00 +2°C° 0 mm 1 mps 751 mmHg 89%
    02:00 +1°C° 0 mm 2 mps 751 mmHg 90%
    03:00 +1°C° 0 mm 2 mps 750 mmHg 90%
    04:00 +2°C° 0 mm 2 mps 750 mmHg 90%
    05:00 +2°C° 0 mm 2 mps 749 mmHg 90%
    06:00 +2°C° 0 mm 2 mps 749 mmHg 90%
    07:00 +2°C° 0 mm 2 mps 749 mmHg 89%
    08:00 +3°C° 0 mm 2 mps 749 mmHg 86%
    09:00 +4°C° 0 mm 2 mps 749 mmHg 82%
    10:00 +4°C° 0 mm 2 mps 748 mmHg 79%
    11:00 +5°C° 0 mm 2 mps 748 mmHg 77%
    12:00 +6°C° 0 mm 2 mps 748 mmHg 74%
    13:00 +6°C° 0 mm 2 mps 748 mmHg 72%
    14:00 +6°C° 0 mm 2 mps 747 mmHg 73%
    15:00 +6°C° 0 mm 2 mps 747 mmHg 75%
    16:00 +5°C° 0 mm 2 mps 747 mmHg 76%
    17:00 +5°C° 0.2 mm 2 mps 747 mmHg 78%
    18:00 +5°C° 0.2 mm 2 mps 747 mmHg 80%
    19:00 +5°C° 0.2 mm 2 mps 747 mmHg 82%
    20:00 +5°C° 0.6 mm 2 mps 747 mmHg 85%
    21:00 +5°C° 0.6 mm 2 mps 747 mmHg 89%
    22:00 +5°C° 0.6 mm 2 mps 747 mmHg 92%
    23:00 +5°C° 0.6 mm 2 mps 746 mmHg 92%

    13 December, Friday

    Time Temperature Precipitation Wind Pressure Humidity
    00:00 +4°C° 0.6 mm 2 mps 746 mmHg 92%
    01:00 +4°C° 0.6 mm 2 mps 746 mmHg 91%
    02:00 +4°C° 0.1 mm 2 mps 745 mmHg 91%
    03:00 +4°C° 0.1 mm 2 mps 745 mmHg 90%
    04:00 +3°C° 0.1 mm 2 mps 744 mmHg 90%
    05:00 +3°C° 0 mm 2 mps 744 mmHg 90%
    06:00 +3°C° 0 mm 2 mps 744 mmHg 90%
    07:00 +3°C° 0 mm 2 mps 744 mmHg 90%
    08:00 +2°C° 0 mm 3 mps 743 mmHg 88%
    09:00 +3°C° 0 mm 3 mps 743 mmHg 86%
    10:00 +3°C° 0 mm 3 mps 743 mmHg 84%
    11:00 +4°C° 0 mm 4 mps 742 mmHg 82%
    12:00 +5°C° 0 mm 5 mps 741 mmHg 80%
    13:00 +6°C° 0 mm 5 mps 741 mmHg 78%
    14:00 +6°C° 0 mm 5 mps 740 mmHg 79%
    15:00 +6°C° 0 mm 4 mps 740 mmHg 80%
    16:00 +5°C° 0 mm 3 mps 740 mmHg 81%
    17:00 +5°C° 0 mm 3 mps 739 mmHg 82%
    18:00 +5°C° 0 mm 3 mps 739 mmHg 83%
    19:00 +5°C° 0 mm 3 mps 739 mmHg 83%
    20:00 +5°C° 0 mm 3 mps 739 mmHg 83%
    21:00 +5°C° 0 mm 3 mps 738 mmHg 82%
    22:00 +4°C° 0 mm 3 mps 738 mmHg 81%
    23:00 +4°C° 0 mm 3 mps 738 mmHg 79%

    14 December, Saturday

    Time Temperature Precipitation Wind Pressure Humidity
    00:00 +4°C° 0 mm 4 mps 737 mmHg 78%
    01:00 +5°C° 0 mm 4 mps 737 mmHg 76%
    02:00 +4°C° 0 mm 3 mps 737 mmHg 76%
    03:00 +4°C° 0 mm 3 mps 736 mmHg 75%
    04:00 +5°C° 0 mm 2 mps 736 mmHg 75%
    05:00 +4°C° 1 mm 3 mps 737 mmHg 80%
    06:00 +4°C° 1 mm 3 mps 737 mmHg 85%
    07:00 +4°C° 1 mm 4 mps 738 mmHg 90%
    08:00 +4°C° 1.2 mm 3 mps 739 mmHg 91%
    09:00 +5°C° 1.2 mm 2 mps 739 mmHg 93%
    10:00 +5°C° 1.2 mm 2 mps 740 mmHg 95%
    11:00 +5°C° 0.5 mm 2 mps 741 mmHg 93%
    12:00 +6°C° 0.5 mm 2 mps 741 mmHg 92%
    13:00 +5°C° 0.5 mm 3 mps 741 mmHg 90%
    14:00 +6°C° 0 mm 2 mps 742 mmHg 91%
    15:00 +5°C° 0 mm 2 mps 743 mmHg 92%
    16:00 +5°C° 0 mm 2 mps 743 mmHg 93%
    17:00 +5°C° 0 mm 2 mps 744 mmHg 92%
    18:00 +4°C° 0 mm 3 mps 745 mmHg 90%
    19:00 +4°C° 0 mm 3 mps 746 mmHg 88%
    20:00 +3°C° 0 mm 3 mps 747 mmHg 87%
    21:00 +3°C° 0 mm 3 mps 748 mmHg 86%
    22:00 +2°C° 0 mm 3 mps 749 mmHg 85%
    23:00 +2°C° 0 mm 3 mps 749 mmHg 85%

    15 December, Sunday

    Time Temperature Precipitation Wind Pressure Humidity
    00:00 +2°C° 0 mm 3 mps 750 mmHg 85%
    01:00 +1°C° 0 mm 4 mps 750 mmHg 85%
    02:00 +1°C° 0 mm 4 mps 751 mmHg 84%
    03:00 +2°C° 0 mm 3 mps 752 mmHg 84%
    04:00 +2°C° 0 mm 3 mps 753 mmHg 83%
    05:00 +1°C° 0 mm 3 mps 753 mmHg 84%
    06:00 +1°C° 0 mm 3 mps 754 mmHg 85%
    07:00 +1°C° 0 mm 3 mps 754 mmHg 86%
    08:00 +2°C° 0 mm 3 mps 755 mmHg 83%
    09:00 +3°C° 0 mm 3 mps 756 mmHg 80%
    10:00 +4°C° 0 mm 3 mps 756 mmHg 76%
    11:00 +5°C° 0 mm 3 mps 756 mmHg 74%
    12:00 +7°C° 0 mm 3 mps 756 mmHg 71%
    13:00 +7°C° 0 mm 3 mps 756 mmHg 68%
    14:00 +7°C° 0 mm 3 mps 756 mmHg 71%
    15:00 +6°C° 0 mm 2 mps 756 mmHg 74%
    16:00 +6°C° 0 mm 2 mps 757 mmHg 77%
    17:00 +6°C° 0 mm 2 mps 757 mmHg 76%
    18:00 +5°C° 0 mm 2 mps 757 mmHg 76%
    19:00 +5°C° 0 mm 2 mps 757 mmHg 76%
    20:00 +4°C° 0 mm 3 mps 757 mmHg 74%
    21:00 +4°C° 0 mm 3 mps 758 mmHg 73%
    22:00 +5°C° 0 mm 3 mps 758 mmHg 71%
    23:00 +5°C° 0 mm 4 mps 758 mmHg 70%
    Show more